Location: Barcelona
(41.3830°N, 2.1830°E)
Time: 01:06:16
(UTC+01:00)

Envisat - Visible Passes

Search period start: 27 February 2020 00:00
Search period end: 08 March 2020 00:00
Orbit: 764 x 766 km, 98.1° (Epoch: 25 February)

Date Brightness Start Highest point End Pass type
(mag) Time Alt. Az. Time Alt. Az. Time Alt. Az.
27 Feb 5.0 06:49:30 10° NNE 06:54:07 34° E 06:58:43 10° SSE visible
27 Feb 5.8 19:44:11 10° SW 19:47:59 21° W 19:51:48 10° NW visible
28 Feb 6.3 06:14:02 10° NE 06:17:02 16° E 06:20:00 10° SE visible
28 Feb 4.3 19:06:06 10° S 19:10:58 46° W 19:15:51 10° NNW visible
29 Feb 6.5 20:12:01 10° WSW 20:13:45 12° W 20:15:29 10° WNW visible
01 Mar 5.5 06:38:27 10° NE 06:42:45 27° E 06:47:01 10° SSE visible
01 Mar 5.5 19:32:21 10° SSW 19:36:36 26° W 19:40:51 10° NW visible
02 Mar 6.5 06:03:41 10° ENE 06:05:36 12° E 06:07:30 10° ESE visible
03 Mar 6.2 19:59:26 10° SW 20:02:19 15° W 20:05:13 10° NW visible
04 Mar 5.9 06:27:29 10° NE 06:31:21 22° E 06:35:12 10° SE visible
04 Mar 5.0 19:20:39 10° SSW 19:25:13 33° W 19:29:48 10° NNW visible
06 Mar 6.0 19:47:19 10° SW 19:50:53 19° W 19:54:30 10° NW visible
07 Mar 6.2 06:16:40 10° NE 06:19:57 17° E 06:23:12 10° SE visible
07 Mar 4.6 19:09:04 10° S 19:13:51 42° W 19:18:41 10° NNW visible
